[Iaude] MPEC L40: 2024 KF2 [a=1.48,e=0.13,i=37.6,H=21.9]
    mpec at cfa.harvard.edu 
    mpec at cfa.harvard.edu
       
    Tue Jun  4 07:49:38 EDT 2024
    
    
  
M.P.E.C. 2024-L40                                  Issued 2024 June 4, 11:48 UT
     The Minor Planet Electronic Circulars contain information on unusual
         minor planets, routine data on comets and natural satellites,
         and occasional editorial announcements.  They are published
    on behalf of Division F of the International Astronomical Union by the
          Minor Planet Center, Smithsonian Astrophysical Observatory,
                          Cambridge, MA 02138, U.S.A.
			  
             Prepared using the Tamkin Foundation Computer Network
                              MPC at CFA.HARVARD.EDU
            URL https://www.minorplanetcenter.net/    ISSN 1523-6714
                                    2024 KF2                                    
Observations:
     K24K02F* C2024 05 31.44584718 21 27.283+28 30 36.33         21.93wXEL040F52
     K24K02F  C2024 05 31.45503618 21 26.043+28 30 13.87         22.28wXEL040F52
     K24K02F  C2024 05 31.47339418 21 23.553+28 29 28.04         21.82wXEL040F52
     K24K02F 7C2024 06 01.06046418 20 07.833+28 04 25.03               VEL040Z84
     K24K02F 7C2024 06 01.08171618 20 04.888+28 03 29.68               VEL040Z84
     K24K02F 7C2024 06 01.09515718 20 03.073+28 02 55.18         20.4 GVEL040Z84
     K24K02F  C2024 06 01.33533218 19 31.996+27 52 27.11         22.2 GVEL040H01
     K24K02F  C2024 06 01.33892318 19 31.475+27 52 17.78         22.6 GVEL040H01
     K24K02F  C2024 06 01.35133918 19 29.748+27 51 45.08         21.9 GVEL040H01
     K24K02F  C2024 06 01.35750018 19 28.889+27 51 28.85         21.6 GVEL040H01
     K24K02F 3C2024 06 01.59256118 18 56.882+27 41 07.78         21.65GVEL040T14
     K24K02F 3C2024 06 01.59354018 18 56.743+27 41 05.04         21.78GVEL040T14
     K24K02F 3C2024 06 01.59451918 18 56.606+27 41 02.47         21.84GVEL040T14
     K24K02F 3C2024 06 01.59549918 18 56.468+27 40 59.69         21.86GVEL040T14
     K24K02F 3C2024 06 01.59647818 18 56.332+27 40 57.06         21.93GVEL040T14
     K24K02F 3C2024 06 01.59745718 18 56.192+27 40 54.55         21.99GVEL040T14
     K24K02F  C2024 06 02.38057318 17 11.244+27 05 06.11         21.6 GVEL040H01
     K24K02F  C2024 06 02.39256618 17 09.479+27 04 32.18         23.0 GVEL040H01
     K24K02F  C2024 06 02.39946518 17 08.491+27 04 12.94         21.6 GVEL040H01
     K24K02F KC2024 06 03.31051818 15 01.83 +26 20 28.6          21.6 GVEL040H21
     K24K02F KC2024 06 03.31340818 15 01.42 +26 20 20.0          22.2 GVEL040H21
     K24K02F KC2024 06 03.31629818 15 01.00 +26 20 11.5          22.1 GVEL040H21
     K24K02F KC2024 06 04.32237 18 12 36.46 +25 29 16.0                VEL040691
     K24K02F KC2024 06 04.33926 18 12 33.78 +25 28 22.7                VEL040691
Observer details:
691 Steward Observatory, Kitt Peak-Spacewatch.  Observer T. H. Bressi.  0.9-m
    f/3 reflector + CCD.
F52 Pan-STARRS 2, Haleakala.  Observers J. Herman, T. Lowe, P. Minguez, A.
    Schultz, I. Smith.  Measurers K. Chambers, T. de Boer, J. Fairlamb, H.
    Gao, M. Huber, C.-C. Lin, E. Magnier, Y. Ramanjooloo, R. Wainscoat, R.
    Weryk.  1.8-m Ritchey-Chretien + CCD.
H01 Magdalena Ridge Observatory, Socorro.  Observers W. H. Ryan, E. V. Ryan.
    Measurer W. H. Ryan.  2.4-m f/8.9 Ritchey-Chretien + CCD.
H21 Astronomical Research Observatory, Westfield.  Observer R. Holmes.
    Measurers T. Linder, R. Holmes, L. Horn.  1.3-m f/4.0 astrograph + CCD.
T14 Canada-France-Hawaii Telescope, Maunakea.  Observers R. Wainscoat, L.
    Wells, T. Burdullis.  Measurers R. Weryk, R. Wainscoat.  3.6-m f/4.1
    reflector + CCD.
Z84 Calar Alto-Schmidt.  Observers F. Ocana, R. Kresken, M. Micheli, L.
    Conversi.  Measurers F. Ocana, M. Micheli.  0.8-m f/3 Schmidt + CCD.
Orbital elements:
2024 KF2                                                 Earth MOID = 0.2964 AU
Epoch 2024 Mar. 31.0 TT = JDT 2460400.5                 Veres                   
M 330.85428              (2000.0)            P               Q                  
n   0.54657894     Peri.  149.39298     -0.31424562     +0.72961658             
a   1.4814970      Node    95.79775     -0.94663589     -0.19255466             
e   0.1265764      Incl.   37.62581     -0.07162533     -0.65618774             
P   1.80           H   21.91          G   0.15           U   9                  
Residuals in seconds of arc
240531 F52  0.1-  0.3-    240601 H01  0.0   0.0     240602 H01  0.0   0.0
240531 F52  0.0   0.0     240601 H01  0.1+  0.0     240602 H01  0.3-  0.2-
240531 F52  0.1+  0.1-    240601 T14  0.0   0.1+    240602 H01  0.1-  0.0
240601 Z84  0.0   0.0     240601 T14  0.0   0.0     240603 H21  0.2-  0.0
240601 Z84  0.1-  0.2-    240601 T14  0.0   0.0     240603 H21  0.1+  0.0
240601 Z84  0.5+  0.2+    240601 T14  0.0   0.1-    240603 H21  0.2+  0.0
240601 H01  0.1+  0.1-    240601 T14  0.0   0.1-    240604 691  0.1+  0.6+
240601 H01  0.1-  0.0     240601 T14  0.0   0.1+    240604 691  0.7-  0.0
Ephemeris:
2024 KF2                 a,e,i = 1.48, 0.13, 38                  q = 1.2940
Date    TT    R. A. (2000) Decl.     Delta      r    Elong.  Phase     V
2024 05 05    18 49 15.5 +37 20 41   0.6313  1.2977   102.2    49.4    23.3
...
2024 05 20    18 40 06.5 +34 13 40   0.5118  1.2941   112.0    46.4    22.8
...
2024 05 28    18 28 13.8 +30 40 29   0.4484  1.2942   119.5    43.0    22.4
...
2024 06 03    18 15 45.7 +26 35 45   0.4039  1.2952   126.3    39.1    22.1
2024 06 04    18 13 23.2 +25 45 59   0.3969  1.2955   127.6    38.3    22.0
2024 06 05    18 10 55.7 +24 53 22   0.3901  1.2958   128.9    37.5    21.9
...
2024 06 11    17 54 35.2 +18 32 08   0.3535  1.2979   137.4    32.0    21.6
...
2024 06 19    17 29 34.0 +07 00 44   0.3208  1.3018   149.1    23.6    21.1
...
2024 07 04    16 41 42.1 -19 07 12   0.3320  1.3129   149.2    23.4    21.2
M. P. C. Staff               (C) Copyright 2024 MPC           M.P.E.C. 2024-L40
    
    
More information about the Iaude
mailing list